Total_Precipitation_Accumulation
0.00 0.00 0.00 0.00 0.00 0.00 0.00 0.00 0.00 0.01 0.02 0.04 0.09 0.15 0.25 0.30 0.37 0.47 0.56 0.55 0.71 0.79 1.01 1.40 1.76 2.01 2.28 2.20 2.22 2.14 2.17 2.35 2.45 2.61 2.75 2.99 3.00 2.96 3.18 3.45 3.60 3.80 3.87 3.69
0.00 0.00 0.00 0.00 0.00 0.00 0.00 0.00 0.01 0.03 0.05 0.06 0.12 0.24 0.36 0.43 0.41 0.53 0.66 0.72 1.01 1.17 1.21 1.38 1.70 2.02 2.23 2.25 2.22 2.27 2.44 2.52 2.66 3.00 3.43 3.85 4.16 4.30 4.36 4.52 4.55 4.46 4.32 4.18
0.00 0.00 0.00 0.00 0.00 0.00 0.00 0.01 0.02 0.05 0.10 0.14 0.20 0.44 0.53 0.50 0.48 0.61 0.76 0.84 1.06 1.26 1.40 1.32 1.37 1.55 1.84 2.08 2.26 2.33 2.63 2.97 3.34 3.82 4.38 4.78 5.12 5.33 5.23 5.05 4.91 4.68 4.45 4.25
0.00 0.00 0.00 0.00 0.00 0.01 0.01 0.01 0.02 0.04 0.09 0.21 0.24 0.49 0.62 0.59 0.65 0.70 0.75 0.77 0.91 0.93 1.04 1.18 1.23 1.33 1.58 1.81 2.10 2.40 2.69 3.24 3.99 4.66 5.23 5.70 5.88 5.84 5.69 5.43 5.06 4.66 4.31 3.98
0.00 0.01 0.01 0.00 0.00 0.00 0.01 0.00 0.01 0.04 0.07 0.16 0.21 0.44 0.70 0.75 0.78 0.83 0.91 0.86 0.82 0.81 0.82 0.94 1.05 1.18 1.38 1.58 1.90 2.29 2.74 3.38 4.06 4.69 5.27 5.71 5.90 5.79 5.50 5.05 4.55 4.04 3.56 3.19
0.01 0.01 0.00 0.00 0.00 0.00 0.00 0.01 0.03 0.06 0.11 0.22 0.20 0.36 0.76 0.99 1.03 1.11 1.06 1.09 1.04 0.94 0.91 0.91 0.92 0.98 1.13 1.38 1.70 2.09 2.52 3.04 3.55 3.98 4.52 4.84 5.00 4.92 4.58 4.09 3.51 3.06 2.73 2.44
0.02 0.01 0.01 0.00 0.00 0.00 0.00 0.02 0.10 0.16 0.19 0.25 0.21 0.41 0.91 1.19 1.18 1.25 1.20 1.21 1.22 1.07 0.96 0.91 0.89 0.88 0.98 1.20 1.52 1.77 2.04 2.45 2.74 3.09 3.47 3.68 3.69 3.54 3.31 3.03 2.71 2.35 2.02 1.73
0.07 0.05 0.02 0.01 0.01 0.01 0.01 0.02 0.13 0.28 0.29 0.33 0.42 0.76 1.18 1.20 1.08 1.10 1.12 1.09 1.06 0.93 0.89 0.94 0.97 0.96 1.05 1.11 1.28 1.47 1.60 1.79 1.92 2.06 2.25 2.28 2.24 2.16 2.13 1.99 1.77 1.53 1.29 1.03
0.13 0.08 0.03 0.01 0.01 0.01 0.01 0.03 0.07 0.12 0.18 0.35 0.68 1.14 1.42 1.30 1.20 1.09 0.98 0.84 0.90 0.83 0.76 0.83 0.88 0.97 1.03 1.04 1.05 1.06 1.06 1.09 1.11 1.13 1.23 1.28 1.27 1.25 1.21 1.11 1.01 0.90 0.81 0.71
0.11 0.09 0.05 0.03 0.02 0.02 0.02 0.04 0.06 0.11 0.30 0.46 0.73 1.16 1.57 1.66 1.57 1.47 1.20 0.92 0.90 0.82 0.74 0.71 0.69 0.74 0.80 0.81 0.79 0.75 0.75 0.74 0.69 0.64 0.65 0.70 0.74 0.72 0.68 0.65 0.63 0.58 0.54 0.49
0.08 0.09 0.07 0.05 0.06 0.06 0.04 0.05 0.07 0.12 0.21 0.42 0.85 1.37 1.50 1.72 1.69 1.54 1.28 1.06 1.01 0.92 0.83 0.77 0.76 0.68 0.66 0.68 0.69 0.65 0.63 0.59 0.55 0.53 0.53 0.49 0.46 0.45 0.41 0.39 0.39 0.35 0.32 0.29
0.09 0.13 0.12 0.09 0.08 0.07 0.07 0.07 0.08 0.19 0.21 0.27 0.72 1.49 1.65 1.80 1.77 1.65 1.61 1.42 1.22 1.08 0.98 0.90 0.85 0.73 0.66 0.63 0.64 0.65 0.58 0.51 0.47 0.44 0.40 0.37 0.34 0.32 0.30 0.28 0.27 0.23 0.22 0.20
0.10 0.22 0.29 0.38 0.31 0.15 0.09 0.08 0.10 0.12 0.21 0.38 0.75 1.48 1.75 1.80 1.71 1.65 1.52 1.45 1.48 1.40 1.25 1.04 0.88 0.74 0.61 0.54 0.54 0.56 0.53 0.48 0.43 0.40 0.39 0.38 0.32 0.27 0.26 0.25 0.22 0.20 0.19 0.18
0.10 0.23 0.40 0.73 0.61 0.26 0.14 0.11 0.12 0.15 0.34 0.51 0.76 1.23 1.48 1.64 1.73 1.78 1.69 1.63 1.60 1.38 1.05 0.83 0.74 0.67 0.60 0.56 0.52 0.48 0.46 0.44 0.42 0.42 0.42 0.42 0.39 0.31 0.28 0.25 0.22 0.19 0.16 0.15
0.13 0.27 0.27 0.31 0.30 0.21 0.18 0.15 0.15 0.19 0.25 0.47 0.76 1.15 1.48 1.61 1.69 1.71 1.76 1.71 1.46 1.21 1.03 0.87 0.77 0.73 0.68 0.59 0.50 0.42 0.38 0.35 0.34 0.38 0.39 0.38 0.36 0.32 0.27 0.23 0.21 0.18 0.15 0.13
0.16 0.31 0.26 0.29 0.27 0.30 0.33 0.28 0.29 0.30 0.38 0.55 0.86 1.23 1.43 1.62 1.72 1.63 1.62 1.56 1.50 1.39 1.24 1.09 0.97 0.88 0.78 0.64 0.52 0.48 0.45 0.41 0.38 0.39 0.39 0.34 0.31 0.28 0.25 0.22 0.19 0.18 0.17 0.16
0.19 0.27 0.36 0.38 0.27 0.39 0.63 0.46 0.38 0.44 0.52 0.71 1.00 1.22 1.18 1.22 1.37 1.49 1.55 1.51 1.53 1.49 1.40 1.28 1.18 1.08 0.95 0.79 0.67 0.62 0.57 0.48 0.43 0.44 0.40 0.37 0.33 0.28 0.22 0.18 0.19 0.18 0.19 0.20
0.20 0.31 0.35 0.40 0.48 0.85 0.84 0.52 0.48 0.54 0.63 0.63 0.76 0.85 0.93 0.96 1.06 1.17 1.27 1.43 1.56 1.54 1.43 1.32 1.19 1.09 1.00 0.86 0.72 0.62 0.52 0.45 0.44 0.46 0.39 0.32 0.31 0.28 0.22 0.19 0.20 0.18 0.19 0.21
0.11 0.26 0.42 0.51 0.75 0.96 0.87 0.56 0.57 0.82 0.94 0.64 0.59 0.61 0.63 0.67 0.80 1.10 1.21 1.35 1.49 1.49 1.41 1.32 1.18 1.07 0.97 0.83 0.69 0.59 0.54 0.48 0.45 0.40 0.33 0.27 0.26 0.24 0.21 0.20 0.19 0.19 0.19 0.20
0.11 0.19 0.43 0.61 0.91 1.20 1.16 0.56 0.38 0.72 1.23 0.80 0.62 0.62 0.68 0.78 0.95 0.99 0.90 0.95 1.16 1.33 1.38 1.34 1.18 0.99 0.85 0.70 0.55 0.49 0.48 0.43 0.37 0.28 0.21 0.20 0.21 0.20 0.17 0.16 0.17 0.17 0.18 0.20
0.32 0.37 0.53 0.71 1.03 1.18 0.67 0.36 0.46 1.00 1.21 0.96 0.80 0.75 0.83 1.02 1.06 0.85 0.75 0.84 0.98 1.13 1.20 1.14 1.02 0.89 0.71 0.54 0.47 0.46 0.39 0.32 0.24 0.18 0.16 0.18 0.21 0.20 0.18 0.18 0.20 0.19 0.19 0.23
0.45 0.62 0.71 0.85 1.15 1.17 0.47 0.34 0.61 0.77 0.68 0.67 0.61 0.56 0.60 0.62 0.59 0.59 0.67 0.80 0.93 1.00 0.98 0.91 0.83 0.72 0.58 0.48 0.47 0.47 0.40 0.30 0.21 0.20 0.21 0.21 0.20 0.12 0.11 0.21 0.23 0.21 0.25 0.28
0.36 0.52 0.68 0.85 1.02 0.82 0.42 0.32 0.35 0.40 0.46 0.45 0.44 0.40 0.44 0.46 0.50 0.51 0.56 0.67 0.77 0.79 0.76 0.68 0.57 0.53 0.49 0.44 0.44 0.44 0.37 0.27 0.26 0.29 0.29 0.23 0.18 0.15 0.14 0.18 0.22 0.23 0.24 0.22
0.39 0.29 0.41 0.63 0.64 0.53 0.39 0.32 0.27 0.25 0.30 0.29 0.30 0.33 0.40 0.46 0.45 0.44 0.45 0.48 0.54 0.56 0.55 0.54 0.50 0.49 0.44 0.38 0.34 0.35 0.28 0.23 0.32 0.37 0.32 0.27 0.24 0.20 0.17 0.16 0.13 0.16 0.17 0.17
0.44 0.50 0.66 0.78 0.64 0.56 0.49 0.38 0.28 0.24 0.21 0.20 0.24 0.30 0.33 0.34 0.34 0.33 0.34 0.35 0.36 0.36 0.40 0.43 0.41 0.37 0.31 0.25 0.22 0.20 0.18 0.20 0.30 0.33 0.27 0.23 0.19 0.17 0.19 0.15 0.07 0.06 0.07 0.04
0.35 0.62 1.03 0.87 0.69 0.70 0.59 0.43 0.33 0.31 0.29 0.27 0.24 0.23 0.25 0.25 0.24 0.24 0.27 0.30 0.29 0.27 0.28 0.31 0.30 0.25 0.20 0.17 0.17 0.14 0.11 0.13 0.22 0.27 0.23 0.17 0.13 0.11 0.12 0.14 0.12 0.04 0.01 0.01